Wetterdaten: Donnerstag, 24.09.2015
Datum Zeit Auen-Temp. Temp gefhlt Luftfeuchte Luftdruck Regen Wind Richtung Richtung Taupunkt Windben
24.09.2015 00:00 7,3 C 7,2 C 84 % 1017,7 hPa 0,0 mm 0,5 km/h (0 Bft) S 180 4,8 C 5,7 km/h (1 Bft)
24.09.2015 00:05 7,4 C 7,2 C 84 % 1017,7 hPa 0,0 mm 1,6 km/h (1 Bft) W 270 4,9 C 0,0 km/h (0 Bft)
24.09.2015 00:10 7,4 C 7,3 C 84 % 1017,7 hPa 0,0 mm 2,8 km/h (1 Bft) SW 225 4,9 C 8,5 km/h (2 Bft)
24.09.2015 00:15 7,5 C 7,4 C 84 % 1017,7 hPa 0,0 mm 3,4 km/h (1 Bft) SW 225 5,0 C 7,5 km/h (2 Bft)
24.09.2015 00:20 7,4 C 7,3 C 84 % 1017,7 hPa 0,0 mm 2,8 km/h (1 Bft) W-SW 247 4,9 C 9,8 km/h (2 Bft)
24.09.2015 00:25 7,4 C 7,3 C 84 % 1017,7 hPa 0,0 mm 2,3 km/h (1 Bft) W-SW 247 4,9 C 10,4 km/h (2 Bft)
24.09.2015 00:30 7,5 C 7,4 C 84 % 1017,7 hPa 0,0 mm 3,4 km/h (1 Bft) SW 225 5,0 C 5,7 km/h (1 Bft)
24.09.2015 00:35 7,5 C 7,4 C 84 % 1017,6 hPa 0,0 mm 5,4 km/h (1 Bft) SW 225 5,0 C 7,3 km/h (2 Bft)
24.09.2015 00:40 7,5 C 7,4 C 84 % 1017,6 hPa 0,0 mm 4,7 km/h (1 Bft) O 90 5,0 C 0,0 km/h (0 Bft)
24.09.2015 00:45 7,5 C 7,4 C 84 % 1017,6 hPa 0,0 mm 3,9 km/h (1 Bft) W-SW 247 5,0 C 7,0 km/h (2 Bft)
24.09.2015 00:50 7,5 C 7,4 C 84 % 1017,6 hPa 0,0 mm 3,1 km/h (1 Bft) S-SO 157 5,0 C 3,6 km/h (1 Bft)
24.09.2015 00:55 7,5 C 7,4 C 84 % 1017,7 hPa 0,0 mm 3,9 km/h (1 Bft) S-SO 157 5,0 C 0,0 km/h (0 Bft)
24.09.2015 01:00 7,5 C 7,4 C 85 % 1017,7 hPa 0,0 mm 3,6 km/h (1 Bft) W-SW 247 5,1 C 10,9 km/h (2 Bft)
24.09.2015 01:05 7,5 C 7,4 C 84 % 1017,7 hPa 0,0 mm 3,6 km/h (1 Bft) S-SW 202 5,0 C 6,0 km/h (2 Bft)
24.09.2015 01:10 7,5 C 7,4 C 84 % 1017,7 hPa 0,0 mm 4,7 km/h (1 Bft) W-SW 247 5,0 C 6,0 km/h (2 Bft)
24.09.2015 01:15 7,5 C 7,4 C 84 % 1017,8 hPa 0,0 mm 4,9 km/h (1 Bft) SW 225 5,0 C 7,0 km/h (2 Bft)
24.09.2015 01:20 7,5 C 7,4 C 84 % 1017,8 hPa 0,0 mm 3,1 km/h (1 Bft) W-SW 247 5,0 C 3,6 km/h (1 Bft)
24.09.2015 01:25 7,4 C 7,4 C 84 % 1017,8 hPa 0,0 mm 1,8 km/h (1 Bft) S 180 4,9 C 0,0 km/h (0 Bft)
24.09.2015 01:30 7,4 C 7,3 C 85 % 1017,8 hPa 0,0 mm 0,5 km/h (0 Bft) SO 135 5,0 C 0,0 km/h (0 Bft)
24.09.2015 01:35 7,4 C 7,3 C 85 % 1018,2 hPa 0,0 mm 0,3 km/h (0 Bft) S 180 5,0 C 0,0 km/h (0 Bft)
24.09.2015 01:38 7,4 C 7,3 C 85 % 1018,2 hPa 0,0 mm 0,8 km/h (0 Bft) SW 225 5,0 C 2,8 km/h (1 Bft)
24.09.2015 01:40 7,4 C 7,3 C 85 % 1018,2 hPa 0,0 mm 0,8 km/h (0 Bft) SW 225 5,0 C 2,8 km/h (1 Bft)
24.09.2015 01:45 7,5 C 7,4 C 85 % 1018,2 hPa 0,0 mm 1,8 km/h (1 Bft) S-SO 157 5,1 C 2,8 km/h (1 Bft)
24.09.2015 01:50 7,7 C 7,6 C 85 % 1018,2 hPa 0,0 mm 4,1 km/h (1 Bft) W-SW 247 5,3 C 8,0 km/h (2 Bft)
24.09.2015 01:55 7,7 C 7,6 C 85 % 1018,1 hPa 0,0 mm 5,4 km/h (1 Bft) SW 225 5,3 C 7,8 km/h (2 Bft)
24.09.2015 02:00 7,8 C 7,6 C 84 % 1018,1 hPa 0,0 mm 7,0 km/h (2 Bft) SW 225 5,3 C 13,2 km/h (3 Bft)
24.09.2015 02:05 7,8 C 7,5 C 84 % 1018,1 hPa 0,0 mm 7,5 km/h (2 Bft) S 180 5,3 C 6,5 km/h (2 Bft)
24.09.2015 02:10 7,6 C 7,6 C 84 % 1018,1 hPa 0,0 mm 4,9 km/h (1 Bft) SW 225 5,1 C 4,7 km/h (1 Bft)
24.09.2015 02:15 7,6 C 7,6 C 84 % 1018,2 hPa 0,0 mm 4,7 km/h (1 Bft) SO 135 5,1 C 7,5 km/h (2 Bft)
24.09.2015 02:20 7,7 C 7,6 C 84 % 1018,2 hPa 0,0 mm 6,2 km/h (2 Bft) S-SW 202 5,2 C 7,8 km/h (2 Bft)
24.09.2015 02:25 7,7 C 7,5 C 84 % 1018,2 hPa 0,0 mm 6,7 km/h (2 Bft) SW 225 5,2 C 9,1 km/h (2 Bft)
24.09.2015 02:30 7,7 C 7,5 C 84 % 1018,2 hPa 0,0 mm 7,3 km/h (2 Bft) SW 225 5,2 C 10,9 km/h (2 Bft)
24.09.2015 02:35 7,7 C 7,5 C 84 % 1018,2 hPa 0,0 mm 6,7 km/h (2 Bft) S-SO 157 5,2 C 6,0 km/h (2 Bft)
24.09.2015 02:40 7,6 C 7,5 C 84 % 1018,2 hPa 0,0 mm 5,4 km/h (1 Bft) S 180 5,1 C 6,5 km/h (2 Bft)
24.09.2015 02:45 7,6 C 7,5 C 84 % 1018,2 hPa 0,0 mm 4,4 km/h (1 Bft) W-SW 247 5,1 C 3,6 km/h (1 Bft)
24.09.2015 02:50 7,5 C 7,4 C 84 % 1018,2 hPa 0,0 mm 2,3 km/h (1 Bft) SW 225 5,0 C 0,0 km/h (0 Bft)
24.09.2015 02:55 7,4 C 7,3 C 84 % 1018,4 hPa 0,0 mm 0,8 km/h (0 Bft) S 180 4,9 C 0,0 km/h (0 Bft)
24.09.2015 03:00 7,4 C 7,3 C 85 % 1018,4 hPa 0,0 mm 1,3 km/h (1 Bft) S 180 5,0 C 4,1 km/h (1 Bft)
24.09.2015 03:05 7,4 C 7,3 C 85 % 1018,4 hPa 0,0 mm 1,6 km/h (1 Bft) W-SW 247 5,0 C 4,1 km/h (1 Bft)
24.09.2015 03:10 7,3 C 7,2 C 85 % 1018,4 hPa 0,0 mm 1,3 km/h (1 Bft) N 360 4,9 C 0,0 km/h (0 Bft)
24.09.2015 03:15 7,3 C 7,2 C 85 % 1018,0 hPa 0,0 mm 1,3 km/h (1 Bft) S 180 4,9 C 3,9 km/h (1 Bft)
24.09.2015 03:20 7,4 C 7,3 C 85 % 1018,0 hPa 0,0 mm 2,3 km/h (1 Bft) S 180 5,0 C 2,8 km/h (1 Bft)
24.09.2015 03:25 7,4 C 7,3 C 85 % 1018,0 hPa 0,0 mm 2,3 km/h (1 Bft) S-SW 202 5,0 C 3,6 km/h (1 Bft)
24.09.2015 03:30 7,4 C 7,3 C 85 % 1018,0 hPa 0,0 mm 1,8 km/h (1 Bft) SW 225 5,0 C 5,4 km/h (1 Bft)
24.09.2015 03:35 7,4 C 7,3 C 85 % 1018,0 hPa 0,0 mm 2,3 km/h (1 Bft) S-SW 202 5,0 C 3,4 km/h (1 Bft)
24.09.2015 03:40 7,3 C 7,2 C 85 % 1018,0 hPa 0,0 mm 2,1 km/h (1 Bft) S-SW 202 4,9 C 6,2 km/h (2 Bft)
24.09.2015 03:45 7,5 C 7,4 C 85 % 1018,0 hPa 0,0 mm 2,3 km/h (1 Bft) W-SW 247 5,1 C 4,7 km/h (1 Bft)
24.09.2015 03:50 7,5 C 7,4 C 85 % 1018,0 hPa 0,0 mm 3,4 km/h (1 Bft) O-NO 67 5,1 C 0,0 km/h (0 Bft)
24.09.2015 03:55 7,5 C 7,4 C 85 % 1018,1 hPa 0,0 mm 1,6 km/h (1 Bft) SO 135 5,1 C 0,0 km/h (0 Bft)
24.09.2015 04:00 7,6 C 7,5 C 85 % 1018,1 hPa 0,0 mm 0,8 km/h (0 Bft) S-SW 202 5,2 C 0,0 km/h (0 Bft)
24.09.2015 04:05 7,6 C 7,5 C 85 % 1018,1 hPa 0,0 mm 1,8 km/h (1 Bft) S 180 5,2 C 4,9 km/h (1 Bft)
24.09.2015 04:10 7,7 C 7,6 C 85 % 1018,1 hPa 0,0 mm 1,8 km/h (1 Bft) SW 225 5,3 C 3,9 km/h (1 Bft)
24.09.2015 04:15 7,7 C 7,6 C 85 % 1018,2 hPa 0,0 mm 2,3 km/h (1 Bft) SW 225 5,3 C 3,1 km/h (1 Bft)
24.09.2015 04:20 7,7 C 7,6 C 85 % 1018,2 hPa 0,0 mm 2,1 km/h (1 Bft) W-SW 247 5,3 C 5,2 km/h (1 Bft)
24.09.2015 04:25 7,7 C 7,6 C 85 % 1018,2 hPa 0,0 mm 1,6 km/h (1 Bft) S 180 5,3 C 0,0 km/h (0 Bft)
24.09.2015 04:30 7,7 C 7,6 C 85 % 1018,2 hPa 0,0 mm 2,1 km/h (1 Bft) S-SO 157 5,3 C 0,0 km/h (0 Bft)
24.09.2015 04:35 7,6 C 7,6 C 85 % 1018,2 hPa 0,0 mm 1,3 km/h (1 Bft) S-SO 157 5,2 C 0,0 km/h (0 Bft)
24.09.2015 04:40 7,6 C 7,6 C 85 % 1018,2 hPa 0,0 mm 0,5 km/h (0 Bft) W-SW 247 5,2 C 2,8 km/h (1 Bft)
24.09.2015 04:45 7,7 C 7,6 C 85 % 1018,2 hPa 0,0 mm 1,0 km/h (0 Bft) S 180 5,3 C 0,0 km/h (0 Bft)
24.09.2015 04:50 7,7 C 7,6 C 85 % 1018,2 hPa 0,0 mm 1,0 km/h (0 Bft) S 180 5,3 C 0,0 km/h (0 Bft)
24.09.2015 04:55 7,6 C 7,6 C 83 % 1018,2 hPa 0,0 mm 0,5 km/h (0 Bft) S 180 4,9 C 0,0 km/h (0 Bft)
24.09.2015 05:00 7,6 C 7,6 C 83 % 1018,2 hPa 0,0 mm 1,3 km/h (1 Bft) SW 225 4,9 C 0,0 km/h (0 Bft)
24.09.2015 05:05 7,7 C 7,6 C 85 % 1018,2 hPa 0,0 mm 2,3 km/h (1 Bft) S 180 5,3 C 7,8 km/h (2 Bft)
24.09.2015 05:10 7,7 C 7,6 C 85 % 1018,2 hPa 0,0 mm 3,1 km/h (1 Bft) SW 225 5,3 C 8,3 km/h (2 Bft)
24.09.2015 05:15 7,7 C 7,6 C 85 % 1018,3 hPa 0,0 mm 3,4 km/h (1 Bft) S 180 5,3 C 6,7 km/h (2 Bft)
24.09.2015 05:20 7,6 C 7,6 C 85 % 1018,3 hPa 0,0 mm 4,9 km/h (1 Bft) SW 225 5,2 C 6,7 km/h (2 Bft)
24.09.2015 05:25 7,7 C 7,6 C 85 % 1018,3 hPa 0,0 mm 4,9 km/h (1 Bft) SW 225 5,3 C 6,0 km/h (2 Bft)
24.09.2015 05:30 7,7 C 7,6 C 85 % 1018,3 hPa 0,0 mm 4,9 km/h (1 Bft) S 180 5,3 C 6,2 km/h (2 Bft)
24.09.2015 05:35 7,7 C 7,6 C 85 % 1018,2 hPa 0,0 mm 4,9 km/h (1 Bft) S-SO 157 5,3 C 7,8 km/h (2 Bft)
24.09.2015 05:40 7,8 C 7,7 C 85 % 1018,2 hPa 0,0 mm 4,9 km/h (1 Bft) W-SW 247 5,4 C 4,1 km/h (1 Bft)
24.09.2015 05:45 7,8 C 7,7 C 85 % 1018,2 hPa 0,0 mm 4,7 km/h (1 Bft) SW 225 5,4 C 4,1 km/h (1 Bft)
24.09.2015 05:50 7,7 C 7,6 C 85 % 1018,2 hPa 0,0 mm 3,4 km/h (1 Bft) W-SW 247 5,3 C 5,7 km/h (1 Bft)
24.09.2015 05:55 7,7 C 7,6 C 85 % 1018,4 hPa 0,0 mm 3,1 km/h (1 Bft) SW 225 5,3 C 0,0 km/h (0 Bft)
24.09.2015 06:00 7,5 C 7,4 C 84 % 1018,4 hPa 0,0 mm 2,8 km/h (1 Bft) SW 225 5,0 C 3,6 km/h (1 Bft)
24.09.2015 06:05 7,4 C 7,3 C 84 % 1018,4 hPa 0,0 mm 2,1 km/h (1 Bft) SW 225 4,9 C 3,1 km/h (1 Bft)
24.09.2015 06:10 7,3 C 7,2 C 84 % 1018,4 hPa 0,0 mm 2,1 km/h (1 Bft) S-SW 202 4,8 C 2,8 km/h (1 Bft)
24.09.2015 06:15 7,2 C 7,1 C 84 % 1018,5 hPa 0,0 mm 1,6 km/h (1 Bft) W-SW 247 4,7 C 0,0 km/h (0 Bft)
24.09.2015 06:20 7,1 C 6,9 C 84 % 1018,5 hPa 0,0 mm 1,8 km/h (1 Bft) S 180 4,6 C 4,7 km/h (1 Bft)
24.09.2015 06:25 7,1 C 6,9 C 85 % 1018,5 hPa 0,0 mm 1,8 km/h (1 Bft) S-SW 202 4,8 C 3,4 km/h (1 Bft)
24.09.2015 06:30 6,9 C 6,7 C 85 % 1018,5 hPa 0,0 mm 1,6 km/h (1 Bft) S-SW 202 4,6 C 2,6 km/h (1 Bft)
24.09.2015 06:35 6,8 C 6,6 C 85 % 1018,6 hPa 0,0 mm 1,0 km/h (0 Bft) S-SO 157 4,5 C 0,0 km/h (0 Bft)
24.09.2015 06:40 6,5 C 6,4 C 85 % 1018,6 hPa 0,0 mm 0,5 km/h (0 Bft) S-SO 157 4,2 C 0,0 km/h (0 Bft)
24.09.2015 06:45 6,5 C 6,3 C 85 % 1018,6 hPa 0,0 mm 0,0 km/h (0 Bft) SW 225 4,2 C 0,0 km/h (0 Bft)
24.09.2015 06:50 6,7 C 6,4 C 86 % 1018,6 hPa 0,0 mm 1,6 km/h (1 Bft) W-SW 247 4,5 C 6,5 km/h (2 Bft)
24.09.2015 06:55 6,7 C 6,5 C 86 % 1018,6 hPa 0,0 mm 1,8 km/h (1 Bft) S 180 4,5 C 0,0 km/h (0 Bft)
24.09.2015 07:00 6,5 C 6,3 C 86 % 1018,6 hPa 0,0 mm 1,0 km/h (0 Bft) S-SO 157 4,3 C 0,0 km/h (0 Bft)
24.09.2015 07:05 6,6 C 6,4 C 86 % 1018,6 hPa 0,0 mm 0,0 km/h (0 Bft) S 180 4,4 C 0,0 km/h (0 Bft)
24.09.2015 07:10 6,6 C 6,4 C 87 % 1018,6 hPa 0,0 mm 0,0 km/h (0 Bft) S-SO 157 4,6 C 0,0 km/h (0 Bft)
24.09.2015 07:15 6,6 C 6,5 C 84 % 1019,0 hPa 0,0 mm 0,0 km/h (0 Bft) S-SO 157 4,1 C 0,0 km/h (0 Bft)
24.09.2015 07:20 6,5 C 6,4 C 87 % 1019,0 hPa 0,0 mm 0,0 km/h (0 Bft) W 270 4,5 C 0,0 km/h (0 Bft)
24.09.2015 07:25 6,5 C 6,3 C 87 % 1019,0 hPa 0,0 mm 0,0 km/h (0 Bft) W 270 4,5 C 0,0 km/h (0 Bft)
24.09.2015 07:30 6,5 C 6,3 C 87 % 1019,0 hPa 0,0 mm 0,0 km/h (0 Bft) W-SW 247 4,5 C 0,0 km/h (0 Bft)
24.09.2015 07:35 6,5 C 6,3 C 87 % 1019,1 hPa 0,0 mm 0,0 km/h (0 Bft) S 180 4,5 C 0,0 km/h (0 Bft)
24.09.2015 07:39 6,6 C 6,4 C 87 % 1019,1 hPa 0,0 mm 0,0 km/h (0 Bft) S 180 4,6 C 0,0 km/h (0 Bft)
24.09.2015 07:40 6,6 C 6,4 C 87 % 1019,1 hPa 0,0 mm 0,0 km/h (0 Bft) S 180 4,6 C 0,0 km/h (0 Bft)
24.09.2015 07:45 6,6 C 6,6 C 84 % 1019,1 hPa 0,0 mm 0,5 km/h (0 Bft) W-SW 247 4,1 C 0,0 km/h (0 Bft)
24.09.2015 07:50 6,7 C 6,7 C 84 % 1019,1 hPa 0,0 mm 0,5 km/h (0 Bft) W 270 4,2 C 0,0 km/h (0 Bft)
24.09.2015 07:55 6,7 C 6,8 C 85 % 1019,2 hPa 0,0 mm 0,0 km/h (0 Bft) W 270 4,4 C 0,0 km/h (0 Bft)
24.09.2015 08:00 6,8 C 6,9 C 85 % 1019,2 hPa 0,0 mm 0,0 km/h (0 Bft) W 270 4,5 C 0,0 km/h (0 Bft)
24.09.2015 08:05 6,9 C 7,1 C 85 % 1019,2 hPa 0,0 mm 0,0 km/h (0 Bft) W 270 4,6 C 0,0 km/h (0 Bft)
24.09.2015 08:10 7,0 C 7,3 C 85 % 1019,2 hPa 0,0 mm 0,0 km/h (0 Bft) S 180 4,7 C 0,0 km/h (0 Bft)
24.09.2015 08:15 7,1 C 7,3 C 85 % 1019,0 hPa 0,0 mm 0,0 km/h (0 Bft) W-NW 292 4,8 C 0,0 km/h (0 Bft)
24.09.2015 08:20 7,2 C 7,4 C 85 % 1019,0 hPa 0,0 mm 0,0 km/h (0 Bft) W 270 4,9 C 0,0 km/h (0 Bft)
24.09.2015 08:25 7,2 C 7,5 C 85 % 1019,0 hPa 0,0 mm 0,0 km/h (0 Bft) W 270 4,9 C 0,0 km/h (0 Bft)
24.09.2015 08:30 7,3 C 7,5 C 85 % 1019,0 hPa 0,0 mm 0,0 km/h (0 Bft) W-NW 292 4,9 C 0,0 km/h (0 Bft)
24.09.2015 08:35 7,4 C 7,7 C 85 % 1019,4 hPa 0,0 mm 0,0 km/h (0 Bft) W-NW 292 5,0 C 0,0 km/h (0 Bft)
24.09.2015 08:40 7,5 C 7,9 C 85 % 1019,4 hPa 0,0 mm 0,0 km/h (0 Bft) S 180 5,1 C 0,0 km/h (0 Bft)
24.09.2015 08:45 7,6 C 8,1 C 85 % 1019,4 hPa 0,0 mm 0,0 km/h (0 Bft) S 180 5,2 C 0,0 km/h (0 Bft)
24.09.2015 08:50 7,8 C 8,3 C 85 % 1019,4 hPa 0,0 mm 0,5 km/h (0 Bft) S 180 5,4 C 0,0 km/h (0 Bft)
24.09.2015 08:55 7,9 C 8,5 C 85 % 1019,4 hPa 0,0 mm 0,5 km/h (0 Bft) S 180 5,5 C 0,0 km/h (0 Bft)
24.09.2015 09:00 8,1 C 8,8 C 85 % 1019,4 hPa 0,0 mm 0,0 km/h (0 Bft) NO 45 5,7 C 0,0 km/h (0 Bft)
24.09.2015 09:05 8,2 C 8,9 C 85 % 1019,4 hPa 0,0 mm 0,0 km/h (0 Bft) N-NO 22 5,8 C 0,0 km/h (0 Bft)
24.09.2015 09:10 8,3 C 9,3 C 85 % 1019,4 hPa 0,0 mm 0,0 km/h (0 Bft) W 270 5,9 C 0,0 km/h (0 Bft)
24.09.2015 09:15 8,4 C 9,3 C 84 % 1019,8 hPa 0,0 mm 0,0 km/h (0 Bft) NW 315 5,9 C 0,0 km/h (0 Bft)
24.09.2015 09:20 8,5 C 9,5 C 84 % 1019,8 hPa 0,0 mm 0,0 km/h (0 Bft) NW 315 6,0 C 0,0 km/h (0 Bft)
24.09.2015 09:25 8,6 C 9,6 C 84 % 1019,8 hPa 0,0 mm 0,5 km/h (0 Bft) SW 225 6,1 C 0,0 km/h (0 Bft)
24.09.2015 09:30 8,6 C 9,6 C 84 % 1019,8 hPa 0,0 mm 0,5 km/h (0 Bft) W-NW 292 6,1 C 0,0 km/h (0 Bft)
24.09.2015 09:35 8,6 C 9,7 C 84 % 1019,8 hPa 0,0 mm 0,3 km/h (0 Bft) NW 315 6,1 C 2,6 km/h (1 Bft)
24.09.2015 09:40 8,7 C 9,9 C 83 % 1019,8 hPa 0,0 mm 1,0 km/h (0 Bft) W-SW 247 6,0 C 2,8 km/h (1 Bft)
24.09.2015 09:45 8,8 C 10,0 C 83 % 1019,8 hPa 0,0 mm 1,3 km/h (1 Bft) W-NW 292 6,1 C 5,7 km/h (1 Bft)
24.09.2015 09:50 8,9 C 10,3 C 83 % 1019,8 hPa 0,0 mm 1,0 km/h (0 Bft) W-NW 292 6,2 C 0,0 km/h (0 Bft)
24.09.2015 09:55 9,0 C 10,4 C 83 % 1019,8 hPa 0,0 mm 2,3 km/h (1 Bft) W-NW 292 6,3 C 4,7 km/h (1 Bft)
24.09.2015 10:00 9,0 C 10,5 C 82 % 1019,8 hPa 0,0 mm 2,8 km/h (1 Bft) W 270 6,1 C 0,0 km/h (0 Bft)
24.09.2015 10:05 9,1 C 10,5 C 82 % 1019,8 hPa 0,0 mm 2,3 km/h (1 Bft) NW 315 6,2 C 2,8 km/h (1 Bft)
24.09.2015 10:10 9,1 C 10,6 C 82 % 1019,8 hPa 0,0 mm 1,6 km/h (1 Bft) W-SW 247 6,2 C 3,4 km/h (1 Bft)
24.09.2015 10:15 9,1 C 10,7 C 81 % 1020,2 hPa 0,0 mm 0,8 km/h (0 Bft) W-NW 292 6,0 C 0,0 km/h (0 Bft)
24.09.2015 10:20 9,3 C 10,9 C 81 % 1020,2 hPa 0,0 mm 0,8 km/h (0 Bft) W-NW 292 6,2 C 3,4 km/h (1 Bft)
24.09.2015 10:25 9,4 C 11,0 C 81 % 1020,2 hPa 0,0 mm 1,6 km/h (1 Bft) S 180 6,3 C 4,1 km/h (1 Bft)
24.09.2015 10:30 9,5 C 11,2 C 80 % 1020,2 hPa 0,0 mm 2,3 km/h (1 Bft) W-NW 292 6,2 C 3,4 km/h (1 Bft)
24.09.2015 10:35 9,6 C 11,4 C 80 % 1020,4 hPa 0,0 mm 1,6 km/h (1 Bft) W 270 6,3 C 0,0 km/h (0 Bft)
24.09.2015 10:40 9,8 C 11,8 C 80 % 1020,4 hPa 0,0 mm 1,3 km/h (1 Bft) W-NW 292 6,5 C 4,1 km/h (1 Bft)
24.09.2015 10:45 9,8 C 11,8 C 80 % 1020,4 hPa 0,0 mm 1,3 km/h (1 Bft) W-NW 292 6,5 C 0,0 km/h (0 Bft)
24.09.2015 10:50 10,0 C 12,1 C 79 % 1020,4 hPa 0,0 mm 1,6 km/h (1 Bft) N-NW 337 6,5 C 2,6 km/h (1 Bft)
24.09.2015 10:55 10,1 C 12,3 C 79 % 1020,7 hPa 0,0 mm 1,0 km/h (0 Bft) W-SW 247 6,6 C 0,0 km/h (0 Bft)
24.09.2015 11:00 10,2 C 12,6 C 79 % 1020,7 hPa 0,0 mm 0,8 km/h (0 Bft) NW 315 6,7 C 4,7 km/h (1 Bft)
24.09.2015 11:05 10,3 C 12,4 C 79 % 1020,7 hPa 0,0 mm 1,8 km/h (1 Bft) N-NW 337 6,8 C 0,0 km/h (0 Bft)
24.09.2015 11:10 10,2 C 12,4 C 78 % 1020,7 hPa 0,0 mm 1,8 km/h (1 Bft) W 270 6,5 C 4,4 km/h (1 Bft)
24.09.2015 11:15 10,3 C 12,6 C 78 % 1020,8 hPa 0,0 mm 0,8 km/h (0 Bft) W-SW 247 6,6 C 3,6 km/h (1 Bft)
24.09.2015 11:20 10,3 C 12,7 C 78 % 1020,8 hPa 0,0 mm 1,0 km/h (0 Bft) SW 225 6,6 C 0,0 km/h (0 Bft)
24.09.2015 11:25 10,3 C 12,6 C 77 % 1020,8 hPa 0,0 mm 0,8 km/h (0 Bft) S 180 6,4 C 0,0 km/h (0 Bft)
24.09.2015 11:30 10,4 C 12,5 C 77 % 1020,8 hPa 0,0 mm 1,0 km/h (0 Bft) W 270 6,5 C 0,0 km/h (0 Bft)
24.09.2015 11:35 10,4 C 12,4 C 77 % 1020,9 hPa 0,0 mm 1,3 km/h (1 Bft) NW 315 6,5 C 0,0 km/h (0 Bft)
24.09.2015 11:40 10,3 C 12,2 C 77 % 1020,9 hPa 0,0 mm 1,6 km/h (1 Bft) NW 315 6,4 C 4,7 km/h (1 Bft)
24.09.2015 11:45 10,2 C 12,1 C 77 % 1020,9 hPa 0,0 mm 1,8 km/h (1 Bft) W 270 6,4 C 3,1 km/h (1 Bft)
24.09.2015 11:50 10,3 C 12,0 C 76 % 1020,9 hPa 0,0 mm 1,8 km/h (1 Bft) NW 315 6,3 C 0,0 km/h (0 Bft)
24.09.2015 11:55 10,4 C 12,1 C 76 % 1020,9 hPa 0,0 mm 1,0 km/h (0 Bft) NW 315 6,4 C 0,0 km/h (0 Bft)
24.09.2015 12:00 10,5 C 12,2 C 76 % 1020,9 hPa 0,0 mm 0,0 km/h (0 Bft) NW 315 6,5 C 0,0 km/h (0 Bft)
24.09.2015 12:05 10,5 C 12,3 C 76 % 1020,9 hPa 0,0 mm 0,3 km/h (0 Bft) NW 315 6,5 C 2,8 km/h (1 Bft)
24.09.2015 12:10 10,6 C 12,4 C 76 % 1020,9 hPa 0,0 mm 0,5 km/h (0 Bft) SW 225 6,5 C 0,0 km/h (0 Bft)
24.09.2015 12:15 10,6 C 12,6 C 75 % 1020,8 hPa 0,0 mm 0,8 km/h (0 Bft) W-NW 292 6,4 C 2,6 km/h (1 Bft)
24.09.2015 12:20 10,6 C 12,7 C 75 % 1020,8 hPa 0,0 mm 1,6 km/h (1 Bft) SW 225 6,4 C 6,0 km/h (2 Bft)
24.09.2015 12:25 10,5 C 12,8 C 75 % 1020,8 hPa 0,0 mm 2,1 km/h (1 Bft) W-NW 292 6,3 C 4,7 km/h (1 Bft)
24.09.2015 12:30 10,8 C 13,4 C 74 % 1020,8 hPa 0,0 mm 3,4 km/h (1 Bft) W 270 6,4 C 4,1 km/h (1 Bft)
24.09.2015 12:35 10,9 C 14,0 C 74 % 1020,7 hPa 0,0 mm 2,6 km/h (1 Bft) O-NO 67 6,5 C 4,4 km/h (1 Bft)
24.09.2015 12:40 11,2 C 15,0 C 73 % 1020,7 hPa 0,0 mm 2,8 km/h (1 Bft) O-NO 67 6,5 C 6,2 km/h (2 Bft)
24.09.2015 12:45 11,2 C 15,4 C 72 % 1020,7 hPa 0,0 mm 3,9 km/h (1 Bft) O-NO 67 6,3 C 4,7 km/h (1 Bft)
24.09.2015 12:50 11,2 C 15,2 C 72 % 1020,7 hPa 0,0 mm 3,9 km/h (1 Bft) O-NO 67 6,3 C 0,0 km/h (0 Bft)
24.09.2015 12:55 11,4 C 15,3 C 72 % 1020,8 hPa 0,0 mm 2,3 km/h (1 Bft) N-NW 337 6,5 C 0,0 km/h (0 Bft)
24.09.2015 13:00 11,7 C 15,4 C 72 % 1020,8 hPa 0,0 mm 1,6 km/h (1 Bft) W 270 6,8 C 0,0 km/h (0 Bft)
24.09.2015 13:05 11,6 C 15,4 C 72 % 1020,8 hPa 0,0 mm 1,3 km/h (1 Bft) W-SW 247 6,7 C 0,0 km/h (0 Bft)
24.09.2015 13:10 11,6 C 15,4 C 71 % 1020,8 hPa 0,0 mm 0,0 km/h (0 Bft) W-SW 247 6,5 C 0,0 km/h (0 Bft)
24.09.2015 13:15 12,1 C 16,2 C 69 % 1020,7 hPa 0,0 mm 1,0 km/h (0 Bft) N-NO 22 6,6 C 4,4 km/h (1 Bft)
24.09.2015 13:20 12,2 C 17,3 C 69 % 1020,7 hPa 0,0 mm 4,1 km/h (1 Bft) O 90 6,7 C 4,4 km/h (1 Bft)
24.09.2015 13:25 12,1 C 17,1 C 68 % 1020,7 hPa 0,0 mm 4,4 km/h (1 Bft) O-SO 112 6,4 C 0,0 km/h (0 Bft)
24.09.2015 13:30 12,7 C 17,8 C 68 % 1020,7 hPa 0,0 mm 2,6 km/h (1 Bft) NO 45 6,9 C 4,7 km/h (1 Bft)
24.09.2015 13:35 13,5 C 18,9 C 67 % 1020,8 hPa 0,0 mm 2,1 km/h (1 Bft) NO 45 7,5 C 4,1 km/h (1 Bft)
24.09.2015 13:40 12,8 C 18,9 C 64 % 1020,8 hPa 0,0 mm 5,4 km/h (1 Bft) O-NO 67 6,2 C 7,8 km/h (2 Bft)
24.09.2015 13:45 12,8 C 18,9 C 64 % 1020,8 hPa 0,0 mm 5,4 km/h (1 Bft) O-NO 67 6,2 C 7,8 km/h (2 Bft)
24.09.2015 13:50 12,0 C 15,8 C 65 % 1020,8 hPa 0,0 mm 5,7 km/h (1 Bft) O-SO 112 5,6 C 4,4 km/h (1 Bft)
24.09.2015 13:55 11,8 C 14,7 C 66 % 1021,2 hPa 0,0 mm 6,2 km/h (2 Bft) N-NO 22 5,7 C 9,6 km/h (2 Bft)
24.09.2015 14:00 11,7 C 13,5 C 67 % 1021,2 hPa 0,0 mm 6,5 km/h (2 Bft) N-NW 337 5,8 C 4,1 km/h (1 Bft)
24.09.2015 14:05 12,0 C 13,9 C 68 % 1021,2 hPa 0,0 mm 4,9 km/h (1 Bft) N-NW 337 6,3 C 7,3 km/h (2 Bft)
24.09.2015 14:10 12,1 C 13,7 C 68 % 1021,2 hPa 0,0 mm 3,9 km/h (1 Bft) N-NO 22 6,4 C 6,2 km/h (2 Bft)
24.09.2015 14:15 11,7 C 13,1 C 67 % 1021,0 hPa 0,0 mm 6,5 km/h (2 Bft) N-NO 22 5,8 C 14,5 km/h (3 Bft)
24.09.2015 14:20 11,5 C 12,7 C 68 % 1021,0 hPa 0,0 mm 6,7 km/h (2 Bft) N-NO 22 5,8 C 10,4 km/h (2 Bft)
24.09.2015 14:25 11,7 C 13,2 C 69 % 1021,0 hPa 0,0 mm 6,0 km/h (2 Bft) N-NO 22 6,2 C 13,2 km/h (3 Bft)
24.09.2015 14:30 11,6 C 13,5 C 69 % 1021,0 hPa 0,0 mm 6,5 km/h (2 Bft) NO 45 6,1 C 14,8 km/h (3 Bft)
24.09.2015 14:35 11,7 C 13,8 C 69 % 1020,9 hPa 0,0 mm 6,5 km/h (2 Bft) NO 45 6,2 C 0,0 km/h (0 Bft)
24.09.2015 14:40 11,8 C 14,2 C 69 % 1020,9 hPa 0,0 mm 7,0 km/h (2 Bft) NO 45 6,3 C 11,4 km/h (2 Bft)
24.09.2015 14:45 11,5 C 13,7 C 70 % 1020,9 hPa 0,0 mm 6,7 km/h (2 Bft) NW 315 6,2 C 8,8 km/h (2 Bft)
24.09.2015 14:50 11,6 C 13,7 C 71 % 1020,9 hPa 0,0 mm 7,3 km/h (2 Bft) NW 315 6,5 C 6,5 km/h (2 Bft)
24.09.2015 14:55 11,6 C 13,7 C 71 % 1020,9 hPa 0,0 mm 5,4 km/h (1 Bft) N-NO 22 6,5 C 3,1 km/h (1 Bft)
24.09.2015 15:00 11,8 C 13,5 C 71 % 1020,9 hPa 0,0 mm 4,1 km/h (1 Bft) N-NO 22 6,7 C 3,6 km/h (1 Bft)
24.09.2015 15:05 11,8 C 13,7 C 71 % 1020,9 hPa 0,0 mm 4,7 km/h (1 Bft) N-NW 337 6,7 C 7,0 km/h (2 Bft)
24.09.2015 15:10 11,4 C 13,1 C 70 % 1020,9 hPa 0,0 mm 5,4 km/h (1 Bft) N-NO 22 6,1 C 8,0 km/h (2 Bft)
24.09.2015 15:15 11,4 C 12,8 C 70 % 1020,7 hPa 0,0 mm 5,2 km/h (1 Bft) NO 45 6,1 C 5,4 km/h (1 Bft)
24.09.2015 15:20 12,0 C 14,5 C 70 % 1020,7 hPa 0,0 mm 4,7 km/h (1 Bft) O-NO 67 6,7 C 5,7 km/h (1 Bft)
24.09.2015 15:25 12,5 C 15,9 C 69 % 1020,7 hPa 0,0 mm 4,4 km/h (1 Bft) N-NO 22 7,0 C 0,0 km/h (0 Bft)
24.09.2015 15:30 12,8 C 17,3 C 68 % 1020,7 hPa 0,0 mm 4,4 km/h (1 Bft) N-NW 337 7,0 C 5,2 km/h (1 Bft)
24.09.2015 15:35 12,5 C 17,0 C 69 % 1020,8 hPa 0,0 mm 4,4 km/h (1 Bft) NW 315 7,0 C 3,9 km/h (1 Bft)
24.09.2015 15:40 12,2 C 15,4 C 69 % 1020,8 hPa 0,0 mm 3,9 km/h (1 Bft) N-NW 337 6,7 C 7,5 km/h (2 Bft)
24.09.2015 15:45 12,0 C 14,5 C 68 % 1020,8 hPa 0,0 mm 3,6 km/h (1 Bft) W 270 6,3 C 4,9 km/h (1 Bft)
24.09.2015 15:50 11,9 C 13,8 C 69 % 1020,8 hPa 0,0 mm 3,4 km/h (1 Bft) NW 315 6,4 C 0,0 km/h (0 Bft)
24.09.2015 15:55 11,9 C 13,2 C 69 % 1020,6 hPa 0,0 mm 2,8 km/h (1 Bft) N-NO 22 6,4 C 5,7 km/h (1 Bft)
24.09.2015 16:00 11,7 C 12,6 C 69 % 1020,6 hPa 0,0 mm 3,6 km/h (1 Bft) O-NO 67 6,2 C 4,1 km/h (1 Bft)
24.09.2015 16:05 11,6 C 12,4 C 69 % 1020,6 hPa 0,0 mm 3,9 km/h (1 Bft) O-NO 67 6,1 C 11,7 km/h (2 Bft)
24.09.2015 16:10 11,3 C 11,8 C 69 % 1020,6 hPa 0,0 mm 4,9 km/h (1 Bft) O-NO 67 5,8 C 4,1 km/h (1 Bft)
24.09.2015 16:15 11,2 C 11,7 C 70 % 1020,6 hPa 0,0 mm 4,1 km/h (1 Bft) SO 135 5,9 C 2,6 km/h (1 Bft)
24.09.2015 16:20 11,0 C 11,6 C 71 % 1020,6 hPa 0,0 mm 1,8 km/h (1 Bft) O-NO 67 5,9 C 7,5 km/h (2 Bft)
24.09.2015 16:25 11,0 C 11,5 C 71 % 1020,6 hPa 0,0 mm 2,8 km/h (1 Bft) NO 45 5,9 C 2,6 km/h (1 Bft)
24.09.2015 16:30 11,0 C 11,6 C 72 % 1020,6 hPa 0,0 mm 3,6 km/h (1 Bft) O-NO 67 6,2 C 9,8 km/h (2 Bft)
24.09.2015 16:35 11,1 C 11,6 C 72 % 1020,4 hPa 0,0 mm 2,6 km/h (1 Bft) NO 45 6,2 C 0,0 km/h (0 Bft)
24.09.2015 16:40 11,0 C 11,8 C 72 % 1020,4 hPa 0,0 mm 2,6 km/h (1 Bft) N-NO 22 6,2 C 5,7 km/h (1 Bft)
24.09.2015 16:45 11,1 C 11,9 C 72 % 1020,4 hPa 0,0 mm 2,6 km/h (1 Bft) O-NO 67 6,2 C 0,0 km/h (0 Bft)
24.09.2015 16:50 11,1 C 12,2 C 72 % 1020,4 hPa 0,0 mm 1,8 km/h (1 Bft) O-SO 112 6,2 C 0,0 km/h (0 Bft)
24.09.2015 16:55 11,2 C 12,3 C 72 % 1020,4 hPa 0,0 mm 2,1 km/h (1 Bft) NW 315 6,3 C 4,1 km/h (1 Bft)
24.09.2015 17:00 11,2 C 12,4 C 72 % 1020,4 hPa 0,0 mm 3,6 km/h (1 Bft) N-NO 22 6,3 C 6,7 km/h (2 Bft)
24.09.2015 17:05 11,1 C 12,4 C 72 % 1020,4 hPa 0,0 mm 3,9 km/h (1 Bft) N-NO 22 6,2 C 7,3 km/h (2 Bft)
24.09.2015 17:10 11,1 C 12,4 C 72 % 1020,4 hPa 0,0 mm 5,2 km/h (1 Bft) N-NO 22 6,2 C 3,6 km/h (1 Bft)
24.09.2015 17:15 11,1 C 12,4 C 72 % 1020,3 hPa 0,0 mm 3,9 km/h (1 Bft) O-NO 67 6,2 C 0,0 km/h (0 Bft)
24.09.2015 17:20 11,1 C 12,4 C 72 % 1020,3 hPa 0,0 mm 2,3 km/h (1 Bft) NO 45 6,2 C 9,8 km/h (2 Bft)
24.09.2015 17:25 11,0 C 12,1 C 72 % 1020,3 hPa 0,0 mm 3,4 km/h (1 Bft) N-NO 22 6,2 C 2,6 km/h (1 Bft)
24.09.2015 17:30 11,0 C 11,9 C 72 % 1020,3 hPa 0,0 mm 3,6 km/h (1 Bft) O-NO 67 6,2 C 0,0 km/h (0 Bft)
24.09.2015 17:35 10,9 C 11,8 C 72 % 1020,2 hPa 0,0 mm 2,3 km/h (1 Bft) NO 45 6,1 C 0,0 km/h (0 Bft)
24.09.2015 17:40 11,1 C 12,0 C 72 % 1020,2 hPa 0,0 mm 1,6 km/h (1 Bft) N-NW 337 6,2 C 3,1 km/h (1 Bft)
24.09.2015 17:45 11,2 C 12,3 C 72 % 1020,2 hPa 0,0 mm 1,6 km/h (1 Bft) N-NO 22 6,3 C 9,1 km/h (2 Bft)
24.09.2015 17:50 11,3 C 12,5 C 71 % 1020,2 hPa 0,0 mm 4,9 km/h (1 Bft) N 360 6,2 C 7,3 km/h (2 Bft)
24.09.2015 17:55 11,4 C 12,6 C 71 % 1020,4 hPa 0,0 mm 5,2 km/h (1 Bft) N 360 6,3 C 4,1 km/h (1 Bft)
24.09.2015 18:00 11,4 C 12,7 C 71 % 1020,4 hPa 0,0 mm 3,9 km/h (1 Bft) O-NO 67 6,3 C 3,6 km/h (1 Bft)
24.09.2015 18:05 11,3 C 12,6 C 71 % 1020,4 hPa 0,0 mm 4,4 km/h (1 Bft) O-NO 67 6,2 C 7,5 km/h (2 Bft)
24.09.2015 18:10 11,2 C 12,4 C 71 % 1020,4 hPa 0,0 mm 3,4 km/h (1 Bft) N-NO 22 6,1 C 0,0 km/h (0 Bft)
24.09.2015 18:15 11,2 C 12,3 C 71 % 1020,5 hPa 0,0 mm 2,6 km/h (1 Bft) O 90 6,1 C 0,0 km/h (0 Bft)
24.09.2015 18:20 11,1 C 12,0 C 72 % 1020,5 hPa 0,0 mm 1,8 km/h (1 Bft) NO 45 6,2 C 4,4 km/h (1 Bft)
24.09.2015 18:25 11,1 C 11,9 C 72 % 1020,5 hPa 0,0 mm 2,1 km/h (1 Bft) N-NO 22 6,2 C 0,0 km/h (0 Bft)
24.09.2015 18:30 11,0 C 11,7 C 72 % 1020,5 hPa 0,0 mm 1,3 km/h (1 Bft) N-NO 22 6,2 C 4,4 km/h (1 Bft)
24.09.2015 18:35 11,0 C 11,5 C 72 % 1020,2 hPa 0,0 mm 1,3 km/h (1 Bft) S 180 6,2 C 2,8 km/h (1 Bft)
24.09.2015 18:40 10,9 C 11,4 C 73 % 1020,2 hPa 0,0 mm 1,3 km/h (1 Bft) O-NO 67 6,3 C 2,6 km/h (1 Bft)
24.09.2015 18:45 11,0 C 11,2 C 73 % 1020,2 hPa 0,0 mm 0,5 km/h (0 Bft) O 90 6,4 C 0,0 km/h (0 Bft)
24.09.2015 18:50 10,8 C 11,0 C 74 % 1020,2 hPa 0,0 mm 0,0 km/h (0 Bft) O-SO 112 6,4 C 0,0 km/h (0 Bft)
24.09.2015 18:55 10,7 C 10,9 C 74 % 1020,3 hPa 0,0 mm 0,3 km/h (0 Bft) O-SO 112 6,3 C 0,0 km/h (0 Bft)
24.09.2015 19:00 10,6 C 10,7 C 74 % 1020,3 hPa 0,0 mm 0,3 km/h (0 Bft) S-SO 157 6,2 C 0,0 km/h (0 Bft)
24.09.2015 19:05 10,4 C 10,5 C 75 % 1020,3 hPa 0,0 mm 0,0 km/h (0 Bft) SO 135 6,2 C 0,0 km/h (0 Bft)
24.09.2015 19:10 10,2 C 10,2 C 75 % 1020,3 hPa 0,0 mm 0,3 km/h (0 Bft) O-SO 112 6,0 C 0,0 km/h (0 Bft)
24.09.2015 19:15 10,0 C 10,0 C 75 % 1020,4 hPa 0,0 mm 0,3 km/h (0 Bft) SO 135 5,8 C 0,0 km/h (0 Bft)
24.09.2015 19:20 9,8 C 9,7 C 76 % 1020,4 hPa 0,0 mm 0,0 km/h (0 Bft) O-SO 112 5,8 C 0,0 km/h (0 Bft)
24.09.2015 19:25 9,6 C 9,5 C 76 % 1020,4 hPa 0,0 mm 0,0 km/h (0 Bft) S-SO 157 5,6 C 0,0 km/h (0 Bft)
24.09.2015 19:30 9,3 C 9,2 C 77 % 1020,4 hPa 0,0 mm 0,0 km/h (0 Bft) S-SO 157 5,5 C 0,0 km/h (0 Bft)
24.09.2015 19:35 9,1 C 9,0 C 78 % 1020,4 hPa 0,0 mm 0,3 km/h (0 Bft) S 180 5,5 C 0,0 km/h (0 Bft)
24.09.2015 19:40 9,1 C 8,9 C 79 % 1020,4 hPa 0,0 mm 0,0 km/h (0 Bft) S 180 5,7 C 0,0 km/h (0 Bft)
24.09.2015 19:41 9,1 C 8,9 C 79 % 1020,4 hPa 0,0 mm 0,0 km/h (0 Bft) S 180 5,7 C 0,0 km/h (0 Bft)
24.09.2015 19:45 9,1 C 8,9 C 79 % 1020,4 hPa 0,0 mm 0,0 km/h (0 Bft) S 180 5,7 C 0,0 km/h (0 Bft)
24.09.2015 19:50 9,1 C 8,9 C 80 % 1020,4 hPa 0,0 mm 0,0 km/h (0 Bft) S 180 5,8 C 0,0 km/h (0 Bft)
24.09.2015 19:55 9,1 C 8,9 C 80 % 1020,2 hPa 0,0 mm 0,0 km/h (0 Bft) SO 135 5,8 C 0,0 km/h (0 Bft)
24.09.2015 20:00 9,1 C 8,9 C 81 % 1020,2 hPa 0,0 mm 0,0 km/h (0 Bft) O-SO 112 6,0 C 0,0 km/h (0 Bft)
24.09.2015 20:05 9,0 C 8,9 C 80 % 1020,2 hPa 0,0 mm 0,0 km/h (0 Bft) O-SO 112 5,7 C 0,0 km/h (0 Bft)
24.09.2015 20:10 9,0 C 8,8 C 81 % 1020,2 hPa 0,0 mm 0,0 km/h (0 Bft) O 90 5,9 C 0,0 km/h (0 Bft)
24.09.2015 20:15 8,9 C 8,8 C 80 % 1020,3 hPa 0,0 mm 0,0 km/h (0 Bft) O-NO 67 5,6 C 0,0 km/h (0 Bft)
24.09.2015 20:20 8,8 C 8,7 C 82 % 1020,3 hPa 0,0 mm 0,0 km/h (0 Bft) SO 135 5,9 C 0,0 km/h (0 Bft)
24.09.2015 20:25 8,8 C 8,6 C 82 % 1020,3 hPa 0,0 mm 0,0 km/h (0 Bft) S 180 5,9 C 0,0 km/h (0 Bft)
24.09.2015 20:30 8,7 C 8,5 C 82 % 1020,3 hPa 0,0 mm 0,0 km/h (0 Bft) O-NO 67 5,8 C 0,0 km/h (0 Bft)
24.09.2015 20:35 8,6 C 8,4 C 82 % 1020,6 hPa 0,0 mm 0,0 km/h (0 Bft) O-NO 67 5,7 C 0,0 km/h (0 Bft)
24.09.2015 20:40 8,5 C 8,3 C 83 % 1020,6 hPa 0,0 mm 0,0 km/h (0 Bft) O-NO 67 5,8 C 0,0 km/h (0 Bft)
24.09.2015 20:45 8,5 C 8,3 C 83 % 1020,6 hPa 0,0 mm 0,0 km/h (0 Bft) O-NO 67 5,8 C 0,0 km/h (0 Bft)
24.09.2015 20:50 8,5 C 8,3 C 83 % 1020,6 hPa 0,0 mm 0,0 km/h (0 Bft) O-NO 67 5,8 C 0,0 km/h (0 Bft)
24.09.2015 20:55 8,4 C 8,3 C 81 % 1020,6 hPa 0,0 mm 0,0 km/h (0 Bft) O-NO 67 5,3 C 0,0 km/h (0 Bft)
24.09.2015 21:00 8,4 C 8,2 C 83 % 1020,6 hPa 0,0 mm 0,0 km/h (0 Bft) O-NO 67 5,7 C 0,0 km/h (0 Bft)
24.09.2015 21:05 8,3 C 8,0 C 83 % 1020,6 hPa 0,0 mm 0,0 km/h (0 Bft) SO 135 5,6 C 0,0 km/h (0 Bft)
24.09.2015 21:10 8,0 C 7,8 C 83 % 1020,6 hPa 0,0 mm 0,0 km/h (0 Bft) S-SO 157 5,3 C 0,0 km/h (0 Bft)
24.09.2015 21:15 7,6 C 7,6 C 82 % 1020,8 hPa 0,0 mm 0,0 km/h (0 Bft) S-SO 157 4,7 C 0,0 km/h (0 Bft)
24.09.2015 21:20 7,3 C 7,1 C 83 % 1020,8 hPa 0,0 mm 0,5 km/h (0 Bft) S 180 4,6 C 5,4 km/h (1 Bft)
24.09.2015 21:25 7,3 C 7,1 C 83 % 1020,8 hPa 0,0 mm 0,8 km/h (0 Bft) S 180 4,6 C 0,0 km/h (0 Bft)
24.09.2015 21:30 7,5 C 7,2 C 86 % 1020,8 hPa 0,0 mm 0,5 km/h (0 Bft) S 180 5,3 C 0,0 km/h (0 Bft)
24.09.2015 21:35 6,8 C 6,7 C 86 % 1020,8 hPa 0,0 mm 0,0 km/h (0 Bft) S 180 4,6 C 0,0 km/h (0 Bft)
24.09.2015 21:40 6,7 C 6,6 C 86 % 1020,8 hPa 0,0 mm 0,3 km/h (0 Bft) SW 225 4,5 C 5,7 km/h (1 Bft)
24.09.2015 21:45 6,7 C 6,5 C 86 % 1020,8 hPa 0,0 mm 0,8 km/h (0 Bft) S 180 4,5 C 0,0 km/h (0 Bft)
24.09.2015 21:50 6,4 C 6,4 C 83 % 1020,8 hPa 0,0 mm 0,8 km/h (0 Bft) S 180 3,7 C 0,0 km/h (0 Bft)
24.09.2015 21:55 6,2 C 6,2 C 83 % 1020,8 hPa 0,0 mm 0,0 km/h (0 Bft) SW 225 3,5 C 0,0 km/h (0 Bft)
24.09.2015 22:00 6,4 C 6,3 C 84 % 1020,8 hPa 0,0 mm 0,0 km/h (0 Bft) S 180 3,9 C 0,0 km/h (0 Bft)
24.09.2015 22:05 6,4 C 6,2 C 84 % 1020,8 hPa 0,0 mm 0,0 km/h (0 Bft) S 180 3,9 C 0,0 km/h (0 Bft)
24.09.2015 22:10 6,4 C 6,3 C 85 % 1020,8 hPa 0,0 mm 0,0 km/h (0 Bft) S 180 4,1 C 0,0 km/h (0 Bft)
24.09.2015 22:15 6,5 C 6,3 C 85 % 1020,7 hPa 0,0 mm 0,0 km/h (0 Bft) S 180 4,2 C 0,0 km/h (0 Bft)
24.09.2015 22:20 6,4 C 6,3 C 85 % 1020,7 hPa 0,0 mm 0,0 km/h (0 Bft) S 180 4,1 C 0,0 km/h (0 Bft)
24.09.2015 22:25 6,4 C 6,3 C 85 % 1020,7 hPa 0,0 mm 0,0 km/h (0 Bft) S 180 4,1 C 0,0 km/h (0 Bft)
24.09.2015 22:30 6,6 C 6,3 C 88 % 1020,7 hPa 0,0 mm 0,0 km/h (0 Bft) S 180 4,8 C 0,0 km/h (0 Bft)
24.09.2015 22:35 6,5 C 6,2 C 88 % 1020,9 hPa 0,0 mm 0,0 km/h (0 Bft) S 180 4,7 C 0,0 km/h (0 Bft)
24.09.2015 22:40 6,4 C 6,2 C 86 % 1020,9 hPa 0,0 mm 0,0 km/h (0 Bft) S 180 4,2 C 0,0 km/h (0 Bft)
24.09.2015 22:45 6,4 C 6,2 C 86 % 1020,9 hPa 0,0 mm 0,0 km/h (0 Bft) S 180 4,2 C 0,0 km/h (0 Bft)
24.09.2015 22:50 6,4 C 6,1 C 88 % 1020,9 hPa 0,0 mm 0,0 km/h (0 Bft) S 180 4,6 C 0,0 km/h (0 Bft)
24.09.2015 22:55 6,4 C 6,1 C 88 % 1020,6 hPa 0,0 mm 0,0 km/h (0 Bft) S-SW 202 4,6 C 0,0 km/h (0 Bft)
24.09.2015 23:00 6,3 C 6,0 C 88 % 1020,6 hPa 0,0 mm 0,0 km/h (0 Bft) S 180 4,5 C 0,0 km/h (0 Bft)
24.09.2015 23:05 5,9 C 5,7 C 89 % 1020,6 hPa 0,0 mm 0,0 km/h (0 Bft) S 180 4,2 C 0,0 km/h (0 Bft)
24.09.2015 23:10 5,9 C 5,7 C 88 % 1020,6 hPa 0,0 mm 0,0 km/h (0 Bft) S 180 4,1 C 0,0 km/h (0 Bft)
24.09.2015 23:15 5,8 C 5,5 C 88 % 1020,7 hPa 0,0 mm 0,0 km/h (0 Bft) S 180 4,0 C 0,0 km/h (0 Bft)
24.09.2015 23:20 5,9 C 5,5 C 89 % 1020,7 hPa 0,0 mm 0,0 km/h (0 Bft) SW 225 4,2 C 0,0 km/h (0 Bft)
24.09.2015 23:25 5,8 C 5,4 C 89 % 1020,7 hPa 0,0 mm 0,0 km/h (0 Bft) SW 225 4,1 C 0,0 km/h (0 Bft)
24.09.2015 23:30 5,5 C 5,2 C 88 % 1020,7 hPa 0,0 mm 0,0 km/h (0 Bft) W 270 3,7 C 0,0 km/h (0 Bft)
24.09.2015 23:35 5,4 C 5,2 C 88 % 1020,7 hPa 0,0 mm 0,0 km/h (0 Bft) W 270 3,6 C 0,0 km/h (0 Bft)
24.09.2015 23:40 5,4 C 5,1 C 88 % 1020,7 hPa 0,0 mm 0,0 km/h (0 Bft) W-SW 247 3,6 C 0,0 km/h (0 Bft)
24.09.2015 23:45 5,3 C 5,0 C 88 % 1020,7 hPa 0,0 mm 0,0 km/h (0 Bft) W 270 3,5 C 0,0 km/h (0 Bft)
24.09.2015 23:50 5,4 C 5,1 C 89 % 1020,7 hPa 0,0 mm 0,0 km/h (0 Bft) W 270 3,7 C 0,0 km/h (0 Bft)
24.09.2015 23:55 5,6 C 5,3 C 89 % 1020,6 hPa 0,0 mm 0,0 km/h (0 Bft) S 180 3,9 C 0,0 km/h (0 Bft)
_ Min-Zeit 23:45 23:45 13:45 00:50 - 23:55 - - 23:45 23:55
Minimum _ 5,3 C 5,0 C 64 % 1017,6 hPa - 0,0 km/h (0 Bft) - - 3,5 C 0,0 km/h (0 Bft)
_ Max-Zeit 13:35 13:45 23:55 14:10 23:55 02:05 - - 13:35 14:30
Maximum _ 13,5 C 18,9 C 89 % 1021,2 hPa 0,0 mm 7,5 km/h
S (2 Bft)
- - 7,5 C 14,8 km/h
NO (3 Bft)
Durchschnitt _ 8,9 C 9,6 C 80 % 1019,7 hPa #0,0 mm 2,0 km/h (1 Bft) SW - 5,5 C 2,7 km/h (1 Bft)